Tracking 35237 objects as of 5-Sep-2026
HD Live streaming from Space Station
objects crossing your sky now

LEMUR 2 KRISH

Track LEMUR 2 KRISH now!
10-day predictions
LEMUR 2 KRISH is classified as:


NORAD ID: 64561
Int'l Code: 2025-135AK
Launch date: June 23, 2025
Source: United States (US)
Launch site: AIR FORCE WESTERN TEST RANGE (AFWTR)
Your satellite tracking list
Your tracking list is empty




NASA's NSSDC Master Catalog

Two Line Element Set (TLE):
1 64561U 25135AK  26248.30926156  .00002268  00000-0  20304-3 0  9992
2 64561  97.7794   2.6944 0001063 101.8462 258.2878 14.96834497 65909
Source of the keplerian elements: AFSPC